Regional Weather Roundup
Issued by NWS

Home | Current Version | Previous Version | Text Only | Print | Product List | Glossary Off
Versions: 1 2 3 4 5 6 7 8 9 10 11 12 13 14 15 16 17 18 19 20 21 22 23 24 25 26 27 28 29 30 31 32 33 34 35 36 37 38 39 40 41 42 43 44 45 46 47 48 49 50

000
ASUS43 KLSX 241259
RWRMO

WEATHER SUMMARY FOR MISSOURI
NATIONAL WEATHER SERVICE SPRINGFIELD MO
800 AM CDT THU APR 24 2014

NOTE: "FAIR" INDICATES FEW OR NO CLOUDS BELOW 12,000 FEET WITH NO
       SIGNIFICANT WEATHER AND/OR OBSTRUCTIONS TO VISIBILITY.
       CURRENT SKY AND/OR WEATHER CONDITIONS ARE NOT AVAILABLE FOR
       CHILLICOTHE AND FARMINGTON.

MOZ001>031-035>038-043-044-053-054-241400-
...NORTHERN AND WESTERN MISSOURI...

CITY           SKY/WX    TMP DP  RH WIND       PRES   REMARKS
KANSAS CTY INT RAIN      60  52  74 SE16      29.65F
KANSAS C DTWN  RAIN      62  52  69 SE8       29.67R
LEE`S SUMMIT   LGT RAIN  60  50  69 S10       29.71R
ST JOSEPH      HVY RAIN  58  55  90 N14       29.69R FOG
CHILLICOTHE      N/A     60  42  51 SE9       29.70S
KIRKSVILLE     CLOUDY    56  39  53 SE17      29.74F

$$
MOZ066>068-077>081-088>096-101>105-241400-
...SOUTHWEST MISSOURI...

CITY           SKY/WX    TMP DP  RH WIND       PRES   REMARKS
SPRINGFIELD    CLOUDY    63  42  46 S21G30    29.71F
JOPLIN         LGT RAIN  62  53  72 S17       29.69S

$$
MOZ032>034-039>042-045>050-055>058-069>072-241400-
...CENTRAL MISSOURI...

CITY           SKY/WX    TMP DP  RH WIND       PRES   REMARKS
COLUMBIA       CLOUDY    59  37  44 SE14G25   29.74F
JEFFERSON CITY CLOUDY    60  37  42 SE13      29.75F
ROLLA          PTSUNNY   60  37  42 S14G22    29.78R
SEDALIA        CLOUDY    64  42  44 SE10      29.71R
OSAGE BEACH    PTSUNNY   61  37  41 S14       29.75F

$$
MOZ051-052-059>065-241400-
...EAST CENTRAL MISSOURI...

CITY           SKY/WX    TMP DP  RH WIND       PRES   REMARKS
ST LOUIS INTL  PTSUNNY   57  34  41 SE18G24   29.87F
SPIRIT OF STL  PTSUNNY   55  34  45 SE9       29.84F
ST CHARLES     PTSUNNY   55  36  48 SE15      29.86F

$$
MOZ072>076-082>087-097>100-106>115-241400-
...SOUTH CENTRAL AND SOUTHEAST MISSOURI...

CITY           SKY/WX    TMP DP  RH WIND       PRES   REMARKS
CAPE GIRARDEAU PTSUNNY   56  38  50 SE16      29.92S
FARMINGTON     MOSUNNY   55  36  47 SE9       29.91S
POPLAR BLUFF   PTSUNNY   55  42  61 SE3       29.90S
WEST PLAINS    PTSUNNY   57  39  51 SE12      29.84F

$$



USA.gov is the U.S. government's official web portal to all federal, state and local government web resources and services.